Home   Weather   Neenah   Past weeks

Flag for USA Past Weather in Neenah, Wisconsin, USA — Yesterday and Last 2 Weeks

Now
36 °F

More clouds than sun.


Feels Like: 30 °F
Forecast: 33 / 37 °F
Wind: 7 mph from Northwest

Location: Appleton / Outagamie

Current Time: Jan 23, 2017 at 11:07:34 am

Latest Report: Jan 23, 2017 at 9:45 am


Visibility: 10 mi

Pressure: 29.77 "Hg

Humidity: 100%

Dew Point: 36 °F

Location of NeenahLocation

Past Weather in Neenah — Graph

°F

Neenah Temperature Yesterday

Maximum temperature yesterday: 37 °F (at 10:45 am)
Minimum temperature yesterday: 34 °F (at 10:35 pm)
Average temperature yesterday: 36 °F

High & Low Weather Summary for the Past Weeks

 TemperatureHumidityPressure
High37 °F (Jan 21, 11:45 am)100% (Jan 9, 11:55 pm)30.79 "Hg (Jan 9, 11:55 pm)
Low0 °F (Jan 13, 5:45 am)43% (Jan 13, 5:22 am)29.07 "Hg (Jan 10, 2:45 pm)
Average24 °F84%29.97 "Hg
* Reported Jan 8 9:45 am — Jan 23 9:45 am, Neenah, Weather by CustomWeather, © 2017

Note: Actual official high and low records may vary slightly from our data, if they occured in-between our weather recording intervals... More about our weather records

Advertising

Neenah Weather History for the Previous 24 Hours

Scroll right to see more
 ConditionsComfort  
Time TempWeatherWind HumidityBarometerVisibility
9:45 am
Mon, Jan 23
36 °FMore clouds than sun.7 mph100%29.77 "Hg10 mi
8:45 am36 °FFog.6 mph100%29.76 "Hg6 mi
7:45 am34 °FFog.6 mph100%29.74 "Hg6 mi
7:25 am34 °FFog.6 mph100%29.74 "Hg4 mi
6:45 am36 °FFog.7 mph100%29.74 "Hg2 mi
6:25 am36 °FFog.6 mph100%29.74 "Hg1 mi
5:45 am36 °FFog.7 mph100%29.73 "Hg1 mi
5:20 am36 °FFog.6 mph100%29.72 "Hg1 mi
4:15 am34 °FFog.7 mph100%29.71 "Hg1 mi
3:55 am34 °FFog.7 mph100%29.71 "Hg1 mi
3:15 am34 °FFog.7 mph100%29.71 "Hg1 mi
2:35 am36 °FFog.6 mph100%29.71 "Hg1 mi
1:55 am36 °FFog.7 mph100%29.71 "Hg2 mi
1:15 am34 °FFog.7 mph100%29.71 "Hg4 mi
12:55 am34 °FFog.8 mph100%29.71 "Hg4 mi
12:15 am34 °FFog.8 mph100%29.71 "Hg5 mi
11:55 pm
Sun, Jan 22
34 °FFog.8 mph100%29.71 "Hg5 mi
11:15 pm34 °FFog.5 mph100%29.71 "Hg5 mi
10:35 pm34 °FFog.6 mph100%29.69 "Hg5 mi
9:45 pm36 °FFog.6 mph100%29.67 "Hg5 mi
8:45 pm36 °FFog.6 mph100%29.67 "Hg5 mi
7:45 pm36 °FFog.7 mph100%29.67 "Hg5 mi
6:45 pm36 °FFog.6 mph100%29.67 "Hg5 mi
5:45 pm36 °FFog.3 mph100%29.66 "Hg5 mi
4:45 pm37 °FFog.No wind100%29.65 "Hg5 mi
3:45 pm37 °FFog.No wind100%29.63 "Hg6 mi
2:45 pm37 °FFog.5 mph100%29.62 "Hg3 mi
2:15 pm37 °FFog.5 mph100%29.62 "Hg6 mi
1:45 pm37 °FFog.3 mph100%29.60 "Hg3 mi
1:30 pm37 °FFog.6 mph100%29.60 "Hg2 mi
1:00 pm37 °FFog.6 mph100%29.60 "Hg1 mi
11:45 am37 °FFog.6 mph100%29.62 "Hg0 mi
Weather by CustomWeather, © 2017

See weather overviewHow to use our weather pages